Terminal Aerodrome Forecast
Issued by NWS

Home | Current Version | Previous Version | Graphics & Text | Print | Product List | Glossary On
Versions: 1 2 3 4 5 6 7 8 9 10 11 12 13 14 15 16 17 18 19 20 21 22
000
FTUS43 KGRB 280659 AAA
TAFATW
TAF AMD
KATW 280659Z 2807/2906 26003KT 1/4SM FG VV002
      TEMPO 2807/2811 3SM BR SCT003
     FM281100 27005KT 5SM BR OVC003
      TEMPO 2811/2813 1SM BR
     FM281300 29004KT P6SM SCT004 BKN020
     FM281600 24006KT P6SM SCT025
     FM290000 VRB03KT P6SM SKC=

USA.gov is the U.S. government's official web portal to all federal, state and local government web resources and services.